Theta_e
305 311 312 313 314 312 316 317 315 313 314 316 316 316 319 324 330 328 329 332 334 337 338 337 335 334 333 332 332 332 331 332 330 329 329 330 331 331 334 333 334 334 334 333 333 333 333 333 334
308 311 312 309 310 312 311 310 312 312 315 314 316 316 316 326 324 325 330 333 333 335 337 335 334 332 331 331 330 329 328 327 325 325 326 326 325 327 329 330 331 331 331 330 329 328 330 332 332
308 312 309 309 308 308 310 311 309 313 313 316 316 315 315 321 324 325 329 332 332 334 334 333 331 330 330 329 328 327 325 324 323 324 324 323 322 323 322 322 323 323 324 323 322 319 320 326 328
310 308 307 311 309 309 309 310 310 313 314 314 315 313 312 317 325 328 331 331 330 331 332 330 330 330 328 326 326 325 324 323 322 322 321 320 320 320 319 318 318 319 319 315 309 305 304 304 303
308 306 308 309 309 310 309 311 312 312 313 312 314 314 312 320 327 329 330 329 328 328 328 328 328 328 325 325 324 323 322 321 320 319 319 317 317 317 316 315 315 312 311 307 303 302 302 302 302
306 306 310 310 310 310 309 309 310 311 311 312 313 311 311 324 328 329 328 327 327 326 326 326 325 324 323 324 322 321 320 318 318 317 314 314 313 313 309 310 312 309 304 301 301 301 301 301 301
305 306 308 309 309 310 310 308 308 308 309 311 311 312 311 316 327 328 328 327 326 325 324 323 322 321 322 320 320 319 318 316 314 310 305 302 301 301 301 301 301 301 301 301 301 301 301 301 301
304 306 310 309 310 312 311 310 308 308 309 310 310 311 312 311 326 327 326 325 324 323 322 321 320 320 320 318 316 315 311 308 302 300 300 300 300 300 300 300 300 300 300 300 300 300 300 301 302
305 305 307 308 310 312 311 309 309 307 308 309 309 310 311 315 324 325 325 323 323 322 321 320 318 318 317 315 313 309 304 301 300 300 301 302 302 301 300 300 300 300 300 300 303 302 301 301 302
304 305 307 309 309 311 311 307 306 308 307 308 309 314 317 320 322 321 322 321 321 320 319 318 316 315 314 312 309 305 301 300 300 300 301 302 301 299 300 300 300 300 300 301 301 300 300 301 300
305 307 308 309 310 311 309 308 306 306 307 305 307 313 315 316 318 319 320 320 321 320 318 317 315 314 313 311 307 302 301 302 302 301 301 300 300 300 300 300 300 299 299 299 299 299 299 299 299
307 306 307 308 309 309 309 307 309 305 307 308 304 312 314 316 317 318 318 320 320 320 318 316 314 312 311 310 304 304 302 302 301 301 300 300 301 300 300 299 299 299 299 299 299 298 298 298 298
308 308 308 308 309 308 306 306 306 307 305 304 307 308 313 314 316 317 318 319 319 318 317 315 313 311 310 308 305 303 302 302 302 301 299 300 300 300 299 299 299 299 298 298 298 297 297 297 297
309 309 310 309 309 308 308 306 306 307 306 305 305 306 309 312 312 313 316 317 318 317 317 315 312 310 308 306 304 303 302 302 301 301 299 299 299 299 299 298 298 298 298 298 297 297 297 297 297
309 310 310 310 309 307 306 306 304 305 305 306 304 303 306 308 309 311 313 315 317 317 316 314 311 308 307 305 303 303 302 301 301 300 299 298 298 298 298 298 298 297 297 297 296 296 296 296 297
309 308 311 311 309 309 306 309 307 305 305 306 305 301 303 305 307 309 312 313 316 316 315 314 311 307 306 304 303 303 302 301 300 299 299 298 298 298 297 297 297 297 297 296 296 296 296 296 296
307 309 310 311 309 310 307 310 308 307 306 305 306 304 302 302 302 306 310 312 314 315 314 312 310 308 305 304 303 302 302 301 299 299 299 298 298 297 297 296 296 296 296 295 295 295 295 295 295
310 309 310 310 311 310 310 308 309 308 308 306 306 305 303 303 303 303 306 309 312 314 313 311 309 307 305 303 302 302 300 299 299 299 298 298 297 297 296 296 295 295 295 294 294 295 294 294 295
309 310 310 310 309 310 311 311 308 309 306 305 305 303 303 302 302 303 303 306 306 308 310 310 307 306 304 302 301 300 299 298 298 298 297 297 297 296 295 295 294 294 294 294 294 293 294 294 294
309 310 310 310 310 310 311 311 309 307 308 307 305 304 303 302 300 300 301 302 303 303 305 307 307 305 304 302 300 299 299 298 298 297 296 296 296 295 294 294 294 294 293 293 293 293 293 294 295
309 310 310 310 310 309 312 313 311 307 307 307 305 306 304 303 301 300 299 299 301 301 301 302 305 304 303 302 300 299 298 298 297 296 296 296 295 294 293 293 292 292 292 292 292 292 293 293 293
310 308 308 309 309 313 312 317 313 312 309 309 309 305 305 304 303 301 299 298 298 300 300 301 302 303 302 301 299 299 297 296 296 296 296 295 294 293 293 292 291 291 291 291 291 291 292 292 292
309 308 309 309 311 312 313 316 312 310 312 312 310 308 306 306 303 301 299 299 298 299 300 300 301 302 301 300 299 298 297 297 297 296 294 294 293 293 292 291 291 290 290 290 290 290 291 291 291
308 310 310 310 314 314 311 314 311 311 312 311 310 309 309 306 303 301 300 298 298 299 300 301 301 300 300 299 298 298 297 296 295 294 293 293 292 292 291 290 290 289 289 289 289 290 290 290 289
309 312 313 313 314 312 309 314 312 309 309 310 310 309 309 307 304 300 298 298 297 297 298 299 299 298 298 297 297 296 295 295 294 293 293 292 292 291 290 290 289 289 289 288 289 289 289 288 287
312 312 312 313 305 308 307 313 312 309 309 308 307 303 304 303 301 299 298 297 296 296 297 297 297 296 295 295 295 294 294 294 293 293 292 292 291 291 290 289 289 288 288 288 288 288 287 287 287
309 312 308 307 296 310 307 309 306 307 303 301 299 302 302 300 298 297 296 296 295 294 295 296 295 294 294 294 293 293 292 292 292 291 291 290 290 290 289 289 289 288 288 287 287 286 286 286 286
305 305 310 311 310 312 310 306 308 307 303 302 298 299 299 297 296 296 294 294 294 294 294 295 295 293 293 292 292 291 291 291 290 290 290 289 289 289 288 288 288 287 287 287 286 285 284 285 285
309 310 309 307 311 309 311 310 301 304 295 298 295 298 297 296 295 294 293 291 290 292 292 292 292 292 292 291 291 290 290 289 289 289 288 288 288 287 286 286 286 283 283 283 283 283 283 283 284
305 309 307 311 303 302 303 308 295 288 285 292 295 297 294 293 292 290 288 287 287 287 289 290 289 290 290 290 289 289 288 288 288 287 287 286 285 285 284 283 282 283 283 282 283 283 283 283 283
Wind_Speed
5 2 9 4 2 4 4 8 4 4 3 3 3 5 9 3 2 4 13 17 21 22 21 20 19 18 16 14 17 17 17 17 16 16 16 16 16 16 15 13 12 11 9 8 8 9 6 3 2
4 5 2 0 4 2 5 8 10 6 5 5 5 3 5 2 3 8 13 20 19 23 24 21 18 18 15 14 16 17 17 15 16 16 16 16 15 16 16 15 13 11 9 8 10 8 4 2 3
4 3 2 3 4 6 5 3 7 2 7 5 2 4 4 4 4 15 15 22 22 23 22 19 18 17 10 14 17 17 17 16 16 16 16 16 15 16 15 14 13 12 11 10 9 7 5 3 3
1 4 4 2 9 7 9 1 6 5 3 3 6 4 4 3 18 14 30 24 22 21 20 18 17 13 10 17 17 17 16 16 16 16 16 15 14 14 13 12 11 11 10 7 6 5 5 5 5
2 2 2 4 8 8 7 5 6 6 5 5 5 6 5 2 19 33 29 24 22 21 19 16 14 12 16 17 17 17 17 16 15 15 15 13 13 13 12 12 11 8 6 7 5 5 5 6 6
2 2 1 7 9 9 9 8 6 5 4 3 5 8 6 18 29 29 29 26 22 21 18 16 15 16 18 18 17 17 17 16 15 14 13 13 12 12 11 11 10 8 7 6 6 6 6 6 6
5 2 5 5 8 8 8 7 7 9 6 5 4 7 5 8 25 28 30 27 24 21 19 19 20 20 19 19 19 18 17 16 15 13 11 10 9 8 8 7 6 5 5 5 6 6 6 7 7
4 4 4 6 10 10 7 4 6 8 9 2 5 7 6 11 30 28 26 28 25 23 21 23 23 23 24 22 20 20 18 15 12 11 11 10 8 6 6 5 4 4 4 5 6 6 6 6 6
2 1 7 9 9 12 3 2 1 2 6 2 4 3 5 34 33 29 30 30 28 24 24 23 25 23 22 21 20 18 14 12 12 12 11 9 6 6 5 4 3 4 4 5 8 8 7 5 6
6 6 10 7 9 7 5 7 8 4 4 2 5 6 18 30 30 23 22 23 28 30 28 26 26 25 22 21 19 16 14 13 12 12 10 8 6 4 4 4 5 5 5 6 6 6 6 7 8
7 12 14 9 8 2 5 7 7 7 4 7 9 11 9 10 17 18 19 24 31 30 30 29 26 25 23 21 21 17 15 14 12 11 10 9 7 5 3 2 2 4 5 5 6 7 8 9 9
8 12 15 13 9 8 6 4 5 7 9 6 10 21 17 14 14 19 21 27 30 33 31 29 27 25 22 19 20 18 17 15 13 12 11 10 8 6 4 2 1 2 4 5 6 7 8 9 9
10 8 13 13 8 6 7 8 7 5 10 7 7 13 16 16 16 21 24 27 32 34 32 31 30 29 26 22 19 18 17 16 14 13 12 11 9 6 4 1 0 2 4 6 7 8 9 9 9
5 14 15 14 15 7 7 12 5 3 10 6 8 14 14 16 18 19 25 28 34 35 37 35 32 29 28 25 22 20 18 17 16 13 13 12 9 7 5 3 1 2 4 6 7 8 9 9 10
8 15 14 13 5 8 6 13 9 16 7 8 10 10 13 17 19 24 31 30 34 37 38 39 35 31 30 27 24 23 21 19 17 14 13 12 11 9 7 5 3 4 5 6 7 8 9 10 10
5 6 17 11 9 6 7 21 10 16 14 17 15 10 12 15 17 26 32 32 34 35 37 39 36 33 30 29 26 24 22 20 19 17 14 13 11 9 8 6 5 5 6 7 7 8 10 10 11
6 6 5 7 7 5 17 19 18 14 11 16 18 13 12 10 9 23 31 32 30 34 34 37 36 34 31 28 26 24 22 20 19 17 15 13 11 9 8 6 6 7 7 6 6 8 10 13 13
16 5 11 10 6 15 22 23 3 8 7 12 16 12 10 13 15 20 23 26 27 33 34 34 35 34 31 29 26 24 22 19 19 17 15 14 12 10 8 7 6 7 6 5 6 9 10 12 13
15 15 18 11 13 14 19 24 18 17 8 7 8 9 11 12 10 24 26 26 26 27 31 34 35 36 34 32 31 27 26 23 20 17 16 15 12 10 9 7 7 7 6 5 7 9 11 13 9
15 17 21 13 9 6 12 19 8 17 16 13 10 10 10 6 9 12 24 30 31 29 28 28 34 36 37 36 34 28 26 23 20 18 17 15 13 11 9 8 8 7 8 8 7 7 8 8 5
21 21 21 15 1 3 4 17 11 7 7 7 10 13 12 13 15 14 15 25 31 31 31 31 33 38 37 34 31 20 23 17 21 20 19 16 14 12 10 9 9 9 10 9 7 6 6 5 6
21 20 19 17 4 13 11 15 17 8 14 17 20 11 14 15 14 17 17 19 28 34 32 32 33 39 37 34 33 29 29 22 19 25 19 15 13 12 10 9 9 10 10 9 8 6 7 8 6
18 17 12 12 12 10 10 6 16 9 22 26 20 19 18 19 17 19 19 26 27 31 30 30 34 37 35 33 32 30 29 26 18 19 18 16 14 12 11 11 11 11 10 10 9 9 8 7 6
10 3 2 3 11 17 20 14 25 13 24 17 19 20 23 20 18 18 18 23 24 30 28 29 35 35 33 31 31 30 25 20 20 21 20 17 14 12 12 11 11 11 11 10 10 9 9 9 7
7 8 8 8 10 12 15 13 22 7 20 21 18 16 18 18 17 16 18 16 22 25 29 32 34 33 31 30 28 25 23 20 21 21 19 17 15 15 14 12 10 10 11 11 10 9 7 7 8
19 22 10 11 5 10 5 9 12 19 20 25 20 7 6 10 15 17 18 16 23 25 31 30 33 30 29 27 25 22 21 20 18 17 16 15 16 15 14 13 11 9 10 9 10 9 9 10 10
6 11 9 5 1 4 4 5 8 12 9 10 6 8 11 10 12 16 17 18 23 25 29 32 30 28 25 24 23 21 20 19 18 16 15 15 15 15 14 14 13 13 14 14 12 10 10 11 12
12 7 5 6 14 19 7 4 6 11 10 9 8 7 7 8 13 14 13 15 20 26 28 27 26 26 23 21 20 19 18 16 16 15 16 16 16 15 14 15 17 18 20 18 16 14 14 16 15
5 7 5 3 8 13 8 4 7 14 2 8 6 5 7 9 11 12 11 16 23 28 26 25 23 23 22 20 18 17 16 15 15 16 16 15 15 15 15 15 16 16 13 13 13 14 15 17 17
2 14 7 7 6 4 3 10 6 6 5 6 6 7 6 7 9 10 11 16 18 23 27 25 21 21 19 18 17 16 15 15 15 14 14 14 15 15 15 15 14 14 13 13 15 14 15 15 16
Wind_Direction
286 298 303 309 67 77 238 252 262 280 68 355 35 65 131 73 79 174 135 164 157 153 146 144 142 133 125 130 117 112 109 106 103 100 97 94 97 97 97 97 101 103 99 93 88 67 60 65 56
247 303 220 93 121 189 259 241 233 225 138 102 48 12 81 73 99 133 121 153 165 156 146 143 145 135 132 127 124 120 115 111 108 103 101 98 92 93 95 97 98 100 97 86 68 59 40 354 327
238 275 83 169 177 195 217 249 118 168 94 103 76 73 85 125 99 148 156 159 160 158 157 151 145 137 142 137 129 125 120 118 113 110 106 100 97 94 96 96 93 88 84 76 68 60 45 14 329
34 15 343 189 235 254 227 270 146 127 32 94 121 83 49 16 152 156 151 161 164 161 160 156 150 162 171 139 134 130 128 122 120 117 111 107 101 98 96 95 92 88 83 79 60 38 17 360 342
265 56 215 236 256 262 256 240 161 156 177 182 133 157 123 44 140 149 151 162 165 161 161 158 158 178 156 145 140 136 132 128 121 115 113 109 104 101 98 95 92 91 86 68 48 24 10 0 353
0 125 178 234 255 262 266 215 174 168 164 215 137 118 174 149 145 153 158 163 165 165 171 176 178 163 151 149 143 141 136 131 125 120 118 113 111 106 102 96 91 84 74 56 43 29 18 3 350
153 97 244 249 260 288 244 204 171 179 184 223 171 137 176 160 160 160 164 166 164 165 174 168 163 159 157 154 152 145 139 137 134 132 129 127 126 120 108 102 94 80 59 39 25 18 11 2 353
154 133 251 241 247 271 256 217 173 152 214 150 182 178 192 202 165 163 163 161 163 164 170 171 170 171 169 165 164 160 154 150 147 138 135 129 127 119 111 94 76 56 34 19 10 6 3 0 2
118 128 240 239 225 245 307 189 339 151 120 100 30 136 206 162 161 165 154 157 162 167 172 180 177 179 178 175 174 170 167 161 155 148 141 137 136 120 100 78 67 47 30 20 23 13 12 8 357
158 175 220 213 225 264 285 206 182 148 147 176 60 41 125 149 161 168 166 161 159 168 175 180 179 183 186 186 186 177 168 162 158 157 158 151 150 137 122 83 61 45 37 30 8 0 353 342 335
202 220 230 261 266 331 307 293 191 145 201 205 182 170 162 159 168 174 177 174 172 169 173 179 180 185 187 189 187 181 176 173 170 170 165 162 157 151 139 115 41 16 9 355 348 342 337 335 332
241 221 229 257 261 293 280 279 277 179 211 147 203 175 166 177 185 182 183 182 177 179 181 182 182 181 190 191 188 181 181 181 181 178 171 167 170 168 166 154 54 358 350 342 339 336 332 329 326
246 243 245 252 253 258 277 246 225 278 271 244 135 163 179 180 191 195 194 190 187 185 187 189 189 193 192 192 192 189 186 188 188 182 179 179 183 183 182 185 302 331 322 323 328 330 332 333 331
248 241 256 247 246 227 256 265 181 280 263 241 163 179 187 187 187 187 194 195 192 191 194 192 194 196 196 197 196 192 192 190 192 192 188 188 189 188 190 196 242 291 309 320 323 329 329 327 325
253 260 270 244 222 215 207 255 211 229 232 245 222 200 193 195 186 195 196 196 196 194 196 192 192 194 195 196 194 193 195 196 196 196 191 190 194 193 192 198 220 258 293 311 315 317 316 313 315
280 263 242 244 218 229 174 247 234 234 223 229 233 207 198 199 196 201 204 203 200 194 193 192 192 193 194 196 192 195 198 196 198 199 200 199 199 203 201 202 220 254 290 302 310 316 314 314 315
221 249 228 241 225 238 202 253 235 236 223 225 227 222 203 206 205 196 202 197 191 192 187 191 192 194 193 195 193 195 195 198 197 198 199 199 204 205 209 216 233 264 285 295 304 306 312 315 314
222 216 232 229 215 214 235 242 242 215 208 225 227 225 200 200 208 179 174 188 185 189 189 191 193 194 193 191 190 193 194 194 196 200 204 204 207 209 216 226 242 263 281 289 291 300 306 309 313
226 214 237 238 228 246 241 249 224 237 266 226 237 223 212 201 196 177 176 175 174 178 189 189 191 191 189 184 182 184 181 185 189 201 203 208 210 215 220 220 231 256 276 279 292 303 312 317 318
225 231 243 258 242 272 282 271 237 223 241 240 229 226 219 194 168 182 178 182 188 186 184 185 191 189 192 193 188 188 186 191 192 198 203 211 220 220 224 230 228 242 258 269 280 290 301 310 346
225 225 234 236 188 202 25 284 265 253 246 231 232 226 216 197 186 187 182 182 188 193 196 193 194 192 194 197 188 185 190 193 194 198 206 210 215 221 226 233 239 244 256 267 274 272 278 280 292
226 223 231 233 201 247 167 265 258 229 238 240 243 223 223 212 196 188 183 182 188 198 199 199 197 194 193 192 191 191 185 176 192 196 203 206 212 224 232 239 244 251 252 255 257 262 259 256 268
227 236 226 217 209 242 221 245 257 185 241 240 234 234 223 220 197 188 191 185 184 192 197 199 196 190 186 190 194 187 186 190 196 200 202 199 202 217 238 250 251 248 246 247 245 240 243 246 250
217 116 115 208 223 241 234 215 267 220 233 244 231 223 227 210 199 191 184 170 168 180 184 184 183 181 181 184 188 192 191 187 175 172 176 187 207 225 235 241 246 246 241 237 235 240 247 252 249
179 196 224 216 211 239 223 201 239 209 239 236 234 226 225 211 195 172 163 161 156 160 169 173 174 172 177 179 182 191 194 188 185 185 195 201 205 214 219 232 239 241 238 234 231 226 236 262 255
200 202 217 230 189 239 168 213 238 240 252 256 247 225 249 184 175 168 159 151 150 152 161 164 172 170 174 178 180 182 188 192 194 196 196 199 207 213 215 227 230 231 229 229 223 231 239 246 246
192 214 224 262 175 277 197 279 297 255 230 255 246 207 204 171 160 155 145 145 148 154 162 168 174 173 179 183 185 190 196 201 206 205 207 206 205 210 214 227 227 227 227 220 225 229 237 242 245
197 168 200 209 244 254 230 238 226 265 235 243 229 201 162 147 141 145 137 139 144 151 160 166 177 175 179 182 186 190 196 201 202 203 205 208 216 223 225 229 235 235 235 230 230 237 242 246 246
166 207 212 173 211 235 250 244 220 253 270 236 231 196 153 137 137 139 130 125 131 148 156 158 165 168 173 178 182 189 193 200 207 211 214 218 226 232 235 239 246 252 241 240 235 237 241 244 248
159 214 194 208 232 227 184 251 181 212 258 277 228 163 127 113 117 121 122 119 124 131 144 149 156 164 174 179 184 188 195 202 211 218 226 231 235 235 238 241 237 233 233 236 238 236 239 240 239